Iowa City, IA

11:55 PM CST on December 05, 2019 (GMT -0600)
Iowa City Municipal

Weather History for KIOW - October, 2019

Change the Weather History Date:

Tuesday, October 1, 2019

  Actual Average Record
Temperature  
Mean Temperature 79 °F 58 °F  
Max Temperature 87 °F 70 °F 90 °F (1976)
Min Temperature 71 °F 46 °F 24 °F (1958)
Degree Days  
Heating Degree Days 0 8  
Month to date heating degree days 8  
Since 1 July heating degree days 120  
Cooling Degree Days 14 1  
Month to date cooling degree days 1  
Year to date cooling degree days 903  
Growing Degree Days 29 (Base 50)    
Moisture  
Dew Point 71 °F    
Average Humidity 77    
Maximum Humidity 90    
Minimum Humidity 61    
Precipitation  
Precipitation 0.09 in 0.09 in 1.18 in (2004)
Month to date precipitation 0.09  
Year to date precipitation 29.63  
Sea Level Pressure  
Sea Level Pressure 29.87 in    
Wind  
Wind Speed 5 mph (SSW)    
Max Wind Speed 13 mph    
Max Gust Speed 21 mph    
Visibility 9 miles    
Events Rain    
T = Trace of Precipitation, MM = Missing Value Source: NWS Daily Summary

Daily Weather History Graph

Daily Weather History Graph

Search for Another Location

Airport or City:

Astronomy

Oct. 01, 2019 Rise Set
Actual Time 7:02 AM CDT 6:48 PM CDT
Civil Twilight 6:35 AM CDT 7:15 PM CDT
Nautical Twilight 6:02 AM CDT 7:48 PM CDT
Astronomical Twilight 5:30 AM CDT 8:20 PM CDT
Moon 10:21 AM CDT (10/1) 8:59 PM CDT (10/1)
Length of Visible Light 12h 40m
Length of Day
11h 45m
Waxing Crescent, 12% of the Moon is Illuminated
Oct 1
Waxing Crescent
Oct 5
First Quarter
Oct 13
Full
Oct 21
Last Quarter
Oct 27
New

Hourly Weather History & Observations

Time (CDT) Temp. Heat Index Dew Point Humidity Pressure Visibility Wind Dir Wind Speed Gust Speed Precip Events Conditions
12:52 AM 75.0 °F - 68.0 °F 79% 29.90 in 10.0 mi Calm Calm - N/A   Clear
1:52 AM 73.9 °F - 68.0 °F 82% 29.90 in 10.0 mi South 6.9 mph - N/A   Clear
2:52 AM 75.0 °F - 68.0 °F 79% 29.90 in 10.0 mi South 5.8 mph - N/A   Clear
3:52 AM 73.9 °F - 66.9 °F 79% 29.90 in 10.0 mi Calm Calm - N/A   Clear
4:52 AM 73.0 °F - 68.0 °F 84% 29.91 in 10.0 mi South 3.5 mph - N/A   Clear
5:52 AM 71.1 °F - 66.9 °F 87% 29.91 in 10.0 mi SSE 4.6 mph - N/A   Clear
6:52 AM 73.0 °F - 68.0 °F 84% 29.91 in 10.0 mi South 5.8 mph - N/A   Overcast
7:52 AM 73.9 °F - 66.9 °F 79% 29.91 in 10.0 mi SSW 4.6 mph - N/A   Overcast
8:52 AM 75.9 °F - 68.0 °F 76% 29.91 in 10.0 mi SW 5.8 mph - N/A   Overcast
9:52 AM 78.1 °F - 69.1 °F 74% 29.92 in 10.0 mi SSW 5.8 mph - N/A   Overcast
10:52 AM 80.1 °F 83.2 °F 70.0 °F 71% 29.92 in 10.0 mi SSW 9.2 mph - N/A   Overcast
11:52 AM 82.9 °F 87.5 °F 71.1 °F 67% 29.91 in 10.0 mi SW 10.4 mph - 0.00 in   Mostly Cloudy
12:52 PM 84.0 °F 89.0 °F 71.1 °F 65% 29.90 in 10.0 mi WSW 11.5 mph - N/A   Mostly Cloudy
1:52 PM 87.1 °F 93.6 °F 72.0 °F 61% 29.88 in 10.0 mi SW 10.4 mph 20.7 mph N/A   Mostly Cloudy
2:52 PM 86.0 °F 91.5 °F 71.1 °F 61% 29.86 in 10.0 mi SSW 11.5 mph - N/A   Mostly Cloudy
3:52 PM 86.0 °F 93.0 °F 73.0 °F 65% 29.84 in 10.0 mi South 12.7 mph - N/A   Scattered Clouds
4:52 PM 87.1 °F 93.6 °F 72.0 °F 61% 29.83 in 10.0 mi SSW 8.1 mph - N/A   Scattered Clouds
5:46 PM 80.6 °F 85.4 °F 73.4 °F 79% 29.83 in 1.5 mi Calm Calm - 0.08 in Rain Heavy Rain
5:52 PM 80.1 °F 85.1 °F 75.0 °F 85% 29.82 in 1.5 mi WSW 5.8 mph - 0.08 in Rain Light Rain
5:56 PM 81.0 °F 86.7 °F 75.0 °F 82% 29.83 in 5.0 mi SW 4.6 mph - 0.00 in Rain Light Rain
6:52 PM 79.0 °F - 75.0 °F 88% 29.82 in 10.0 mi SSE 4.6 mph - 0.00 in   Partly Cloudy
7:52 PM 80.1 °F 84.5 °F 73.9 °F 81% 29.81 in 10.0 mi South 8.1 mph - N/A   Clear
8:52 PM 82.0 °F 87.4 °F 73.0 °F 74% 29.83 in 10.0 mi South 8.1 mph - N/A   Clear
9:52 PM 81.0 °F 85.2 °F 72.0 °F 74% 29.84 in 10.0 mi WSW 5.8 mph - N/A   Scattered Clouds
10:52 PM 73.9 °F - 70.0 °F 87% 29.83 in 10.0 mi Calm Calm - 0.01 in   Partly Cloudy
11:52 PM 73.0 °F - 70.0 °F 90% 29.83 in 10.0 mi ENE 3.5 mph - N/A   Mostly Cloudy